Location: Cahas Mountain Overlook
(37.0833°N, 80.1000°W)
Time: 17:50:05
(UTC-04:00)

AO-85 - Visible Passes

Search period start: 31 March 2023 00:00
Search period end: 10 April 2023 00:00
Orbit: 516 x 753 km, 64.8° (Epoch: 04 January)

Date Brightness Start Highest point End Pass type
(mag) Time Alt. Az. Time Alt. Az. Time Alt. Az.
03 Apr ? 06:37:32 10° SE 06:40:01 15° ESE 06:42:27 10° ENE visible
06 Apr ? 06:01:19 10° SSE 06:04:32 20° ESE 06:07:37 10° ENE visible
07 Apr ? 06:21:41 10° SSW 06:25:55 51° ESE 06:29:53 10° NE visible
08 Apr ? 05:06:43 10° ESE 05:07:42 11° ESE 05:08:41 10° E visible
09 Apr ? 05:25:18 10° S 05:29:00 27° ESE 05:32:30 10° NE visible
